DLH31T EDDH-EDDF

Flight info

Callsign DLH31T
Flight time 0h 49m
Altitude 34000
Route AMLUH2G AMLUH M852 DENIX DCT RIMET T157 KERAX KERAX5A
Aircraft B738/M-SDE2E3FGHIRWXY/LB1

Departure

Time 2026-05-07 14:54
Airport Hamburg Helmut Schmidt Airport (EDDH)

Arrival

Time 2026-05-07 15:43
Airport Frankfurt Main Airport (EDDF)
Time Latitude Longitude Altitude Speed Heading
2026-05-07 14:27 53.63208 10.00359 50 ft 0 kts 89°
2026-05-07 14:45 53.63208 10.00350 50 ft 2 kts 89°
2026-05-07 14:46 53.63208 10.00322 50 ft 2 kts 90°
2026-05-07 14:46 53.63208 10.00295 50 ft 2 kts 91°
2026-05-07 14:46 53.63208 10.00267 50 ft 2 kts 92°
2026-05-07 14:46 53.63209 10.00239 50 ft 2 kts 96°
2026-05-07 14:47 53.63212 10.00211 48 ft 2 kts 104°
2026-05-07 14:47 53.63218 10.00186 47 ft 2 kts 146°
2026-05-07 14:47 53.63229 10.00179 45 ft 1 kts 174°
2026-05-07 14:47 53.63230 10.00179 45 ft 0 kts 175°
2026-05-07 14:49 53.63178 10.00187 50 ft 11 kts 175°
2026-05-07 14:50 53.63092 10.00192 50 ft 14 kts 189°
2026-05-07 14:50 53.62998 10.00108 49 ft 15 kts 212°
2026-05-07 14:50 53.62921 9.99997 49 ft 15 kts 239°
2026-05-07 14:50 53.62878 9.99847 46 ft 14 kts 243°
2026-05-07 14:51 53.62878 9.99733 47 ft 3 kts 324°
2026-05-07 14:51 53.62887 9.99723 48 ft 0 kts 328°
2026-05-07 14:54 53.62888 9.99723 48 ft 1 kts 329°
2026-05-07 14:54 53.63087 9.99550 49 ft 77 kts 333°
2026-05-07 14:54 53.63826 9.98923 81 ft 155 kts 337°
2026-05-07 14:54 53.64901 9.98033 678 ft 189 kts 335°
2026-05-07 14:55 53.66095 9.97004 1928 ft 187 kts 336°
2026-05-07 14:55 53.67303 9.95968 2985 ft 202 kts 335°
2026-05-07 14:55 53.68600 9.94895 3542 ft 212 kts 344°
2026-05-07 14:55 53.70051 9.94634 4102 ft 213 kts
2026-05-07 14:56 53.71527 9.94694 4778 ft 212 kts
2026-05-07 14:56 53.72883 9.95555 5416 ft 211 kts 39°
2026-05-07 14:56 53.73774 9.97513 6026 ft 213 kts 66°
2026-05-07 14:56 53.74113 9.99965 6647 ft 217 kts 81°
2026-05-07 14:57 53.74243 10.02522 7184 ft 222 kts 93°
2026-05-07 14:57 53.73775 10.05085 7549 ft 239 kts 114°
2026-05-07 14:57 53.72952 10.07652 7804 ft 261 kts 118°
2026-05-07 14:57 53.71997 10.10388 8288 ft 277 kts 119°
2026-05-07 14:58 53.71020 10.13215 9098 ft 280 kts 119°
2026-05-07 14:58 53.70043 10.16088 9901 ft 285 kts 119°
2026-05-07 14:58 53.68998 10.18988 10440 ft 298 kts 129°
2026-05-07 14:58 53.67930 10.20601 10543 ft 315 kts 149°
2026-05-07 14:59 53.65083 10.22324 10820 ft 343 kts 165°
2026-05-07 14:59 53.62727 10.23363 11228 ft 356 kts 166°
2026-05-07 14:59 53.61095 10.24066 11688 ft 359 kts 166°
2026-05-07 14:59 53.58672 10.25121 12470 ft 361 kts 165°
2026-05-07 15:00 53.56227 10.26208 13217 ft 365 kts 165°
2026-05-07 15:00 53.53762 10.27324 13962 ft 369 kts 165°
2026-05-07 15:00 53.51266 10.28464 14643 ft 374 kts 165°
2026-05-07 15:00 53.48745 10.29620 15337 ft 378 kts 165°
2026-05-07 15:01 53.46198 10.30788 16044 ft 382 kts 165°
2026-05-07 15:01 53.43622 10.31968 16774 ft 385 kts 165°
2026-05-07 15:01 53.41018 10.33152 17427 ft 390 kts 166°
2026-05-07 15:01 53.38382 10.34337 18087 ft 395 kts 166°
2026-05-07 15:02 53.35716 10.35528 18725 ft 398 kts 166°
2026-05-07 15:02 53.33031 10.36728 19352 ft 400 kts 166°
2026-05-07 15:02 53.30328 10.37935 19986 ft 403 kts 166°
2026-05-07 15:02 53.27646 10.39133 20547 ft 406 kts 166°
2026-05-07 15:03 53.24911 10.40354 21140 ft 409 kts 166°
2026-05-07 15:03 53.22150 10.41586 21702 ft 412 kts 166°
2026-05-07 15:03 53.19368 10.42825 22263 ft 415 kts 166°
2026-05-07 15:03 53.16527 10.44088 22811 ft 419 kts 166°
2026-05-07 15:04 53.13720 10.45164 23321 ft 421 kts 173°
2026-05-07 15:04 53.10797 10.45534 23804 ft 422 kts 182°
2026-05-07 15:04 53.07860 10.45207 24254 ft 424 kts 186°
2026-05-07 15:04 53.04911 10.44768 24682 ft 427 kts 186°
2026-05-07 15:05 53.01943 10.44305 25100 ft 430 kts 186°
2026-05-07 15:05 52.98960 10.43847 25520 ft 432 kts 186°
2026-05-07 15:05 52.95951 10.43399 25925 ft 435 kts 186°
2026-05-07 15:05 52.92923 10.42963 26315 ft 438 kts 186°
2026-05-07 15:06 52.89881 10.42537 26698 ft 441 kts 186°
2026-05-07 15:06 52.86815 10.42114 27069 ft 443 kts 185°
2026-05-07 15:06 52.83731 10.41694 27442 ft 446 kts 185°
2026-05-07 15:06 52.80633 10.41273 27807 ft 448 kts 185°
2026-05-07 15:07 52.77517 10.40851 28158 ft 450 kts 185°
2026-05-07 15:07 52.74383 10.40427 28490 ft 453 kts 185°
2026-05-07 15:07 52.71231 10.40000 28840 ft 455 kts 185°
2026-05-07 15:07 52.68077 10.39574 29309 ft 454 kts 185°
2026-05-07 15:08 52.64933 10.39151 29865 ft 451 kts 185°
2026-05-07 15:08 52.61807 10.38729 30357 ft 449 kts 185°
2026-05-07 15:08 52.58692 10.38309 30727 ft 449 kts 185°
2026-05-07 15:08 52.55576 10.37889 31050 ft 450 kts 185°
2026-05-07 15:09 52.52456 10.37470 31387 ft 450 kts 185°
2026-05-07 15:09 52.49332 10.37051 31764 ft 450 kts 185°
2026-05-07 15:09 52.46214 10.36633 32078 ft 450 kts 185°
2026-05-07 15:09 52.43072 10.36212 32065 ft 455 kts 185°
2026-05-07 15:10 52.36771 10.35371 32075 ft 452 kts 185°
2026-05-07 15:10 52.30549 10.34543 32078 ft 447 kts 185°
2026-05-07 15:11 52.24330 10.33717 32079 ft 448 kts 185°
2026-05-07 15:11 52.18130 10.32895 32081 ft 448 kts 185°
2026-05-07 15:12 52.11895 10.32072 32081 ft 449 kts 185°
2026-05-07 15:12 52.05669 10.31253 32077 ft 449 kts 185°
2026-05-07 15:13 51.99436 10.30434 32080 ft 449 kts 185°
2026-05-07 15:13 51.93201 10.29618 32075 ft 449 kts 185°
2026-05-07 15:14 51.86969 10.28804 32075 ft 449 kts 185°
2026-05-07 15:14 51.80745 10.27993 32071 ft 449 kts 185°
2026-05-07 15:15 51.74523 10.27185 32069 ft 449 kts 185°
2026-05-07 15:15 51.68306 10.26380 32065 ft 448 kts 185°
2026-05-07 15:16 51.62144 10.25585 32062 ft 446 kts 185°
2026-05-07 15:16 51.55958 10.24788 32059 ft 445 kts 185°
2026-05-07 15:17 51.49787 10.23995 32054 ft 445 kts 185°
2026-05-07 15:17 51.43616 10.23205 32059 ft 445 kts 185°
2026-05-07 15:18 51.37443 10.22415 32059 ft 445 kts 185°
2026-05-07 15:18 51.34354 10.22022 31886 ft 447 kts 185°
2026-05-07 15:18 51.31234 10.21758 31249 ft 447 kts 182°
2026-05-07 15:19 51.28131 10.21693 30536 ft 446 kts 180°
2026-05-07 15:19 51.25026 10.21697 29779 ft 445 kts 180°
2026-05-07 15:19 51.21953 10.21700 29228 ft 438 kts 180°
2026-05-07 15:19 51.18923 10.21676 28665 ft 432 kts 181°
2026-05-07 15:20 51.15936 10.21632 28116 ft 427 kts 181°
2026-05-07 15:20 51.12981 10.21580 27564 ft 422 kts 181°
2026-05-07 15:20 51.10036 10.21523 27002 ft 418 kts 181°
2026-05-07 15:20 51.07168 10.21466 26476 ft 414 kts 181°
2026-05-07 15:21 51.04302 10.21410 25938 ft 410 kts 181°
2026-05-07 15:21 51.01459 10.21354 25414 ft 407 kts 181°
2026-05-07 15:21 50.98635 10.21300 24897 ft 404 kts 181°
2026-05-07 15:21 50.95836 10.21247 24385 ft 401 kts 181°
2026-05-07 15:22 50.93055 10.21194 23878 ft 399 kts 181°
2026-05-07 15:22 50.90289 10.21142 23319 ft 397 kts 181°
2026-05-07 15:22 50.87538 10.21089 22738 ft 394 kts 181°
2026-05-07 15:22 50.84805 10.21027 22186 ft 391 kts 181°
2026-05-07 15:23 50.82139 10.20394 21660 ft 387 kts 200°
2026-05-07 15:23 50.79804 10.18397 21184 ft 381 kts 219°
2026-05-07 15:23 50.77972 10.15421 20678 ft 377 kts 236°
2026-05-07 15:23 50.76694 10.11832 20210 ft 373 kts 244°
2026-05-07 15:24 50.75546 10.08173 19715 ft 371 kts 244°
2026-05-07 15:24 50.74426 10.04526 19228 ft 368 kts 245°
2026-05-07 15:24 50.73306 10.00900 18754 ft 366 kts 244°
2026-05-07 15:24 50.72182 9.97304 18267 ft 364 kts 244°
2026-05-07 15:25 50.71055 9.93739 17726 ft 362 kts 244°
2026-05-07 15:25 50.69927 9.90201 17222 ft 360 kts 244°
2026-05-07 15:25 50.68804 9.86691 16748 ft 357 kts 244°
2026-05-07 15:25 50.67689 9.83212 16265 ft 354 kts 244°
2026-05-07 15:26 50.66580 9.79756 15794 ft 352 kts 244°
2026-05-07 15:26 50.65478 9.76330 15334 ft 349 kts 244°
2026-05-07 15:26 50.64382 9.72929 14872 ft 347 kts 244°
2026-05-07 15:26 50.63166 9.69660 14390 ft 347 kts 233°
2026-05-07 15:27 50.61454 9.67061 13949 ft 347 kts 218°
2026-05-07 15:27 50.59335 9.65251 13448 ft 348 kts 203°
2026-05-07 15:27 50.57072 9.63921 12963 ft 346 kts 201°
2026-05-07 15:27 50.54821 9.62617 12476 ft 344 kts 202°
2026-05-07 15:28 50.52585 9.61287 12007 ft 342 kts 202°
2026-05-07 15:28 50.50345 9.59931 11547 ft 339 kts 204°
2026-05-07 15:28 50.48360 9.58009 11150 ft 335 kts 226°
2026-05-07 15:28 50.46993 9.55187 11092 ft 328 kts 245°
2026-05-07 15:29 50.46207 9.51830 11062 ft 320 kts 255°
2026-05-07 15:29 50.45596 9.48531 11041 ft 310 kts 256°
2026-05-07 15:29 50.45025 9.45355 11031 ft 296 kts 256°
2026-05-07 15:29 50.44474 9.42327 11025 ft 282 kts 256°
2026-05-07 15:30 50.43942 9.39445 11027 ft 268 kts 255°
2026-05-07 15:30 50.43431 9.36707 11028 ft 255 kts 255°
2026-05-07 15:30 50.42939 9.34098 11035 ft 243 kts 255°
2026-05-07 15:30 50.42470 9.31624 11029 ft 231 kts 255°
2026-05-07 15:31 50.42017 9.29244 11035 ft 226 kts 255°
2026-05-07 15:31 50.41568 9.26885 11047 ft 231 kts 255°
2026-05-07 15:31 50.41106 9.24465 10935 ft 232 kts 255°
2026-05-07 15:31 50.40651 9.22045 10694 ft 232 kts 255°
2026-05-07 15:32 50.40182 9.19527 9981 ft 252 kts 255°
2026-05-07 15:32 50.39670 9.16748 9086 ft 276 kts 255°
2026-05-07 15:32 50.39143 9.13835 8673 ft 278 kts 255°
2026-05-07 15:32 50.38620 9.10933 8391 ft 275 kts 256°
2026-05-07 15:33 50.38099 9.08055 8074 ft 274 kts 256°
2026-05-07 15:33 50.37477 9.05249 7742 ft 274 kts 242°
2026-05-07 15:33 50.36206 9.03063 7436 ft 276 kts 214°
2026-05-07 15:33 50.34420 9.02017 7168 ft 278 kts 189°
2026-05-07 15:34 50.32475 9.01772 7114 ft 281 kts 184°
2026-05-07 15:34 50.30515 9.01638 7058 ft 282 kts 184°
2026-05-07 15:34 50.28569 9.01520 7003 ft 277 kts 184°
2026-05-07 15:34 50.26654 9.01410 6760 ft 274 kts 184°
2026-05-07 15:35 50.24788 9.01309 6571 ft 266 kts 184°
2026-05-07 15:35 50.22967 9.01217 6451 ft 251 kts 184°
2026-05-07 15:35 50.21258 9.01136 6224 ft 242 kts 184°
2026-05-07 15:35 50.19585 9.01055 5840 ft 240 kts 184°
2026-05-07 15:36 50.17917 9.00973 5450 ft 240 kts 184°
2026-05-07 15:36 50.16257 9.00889 5176 ft 234 kts 184°
2026-05-07 15:36 50.14700 9.00587 5029 ft 219 kts 205°
2026-05-07 15:36 50.13639 8.99145 4986 ft 195 kts 249°
2026-05-07 15:37 50.13251 8.97234 5003 ft 180 kts 253°
2026-05-07 15:37 50.12833 8.95410 5009 ft 178 kts 251°
2026-05-07 15:37 50.12403 8.93608 5029 ft 176 kts 251°
2026-05-07 15:37 50.11967 8.91794 4886 ft 182 kts 251°
2026-05-07 15:38 50.11522 8.89950 4637 ft 181 kts 251°
2026-05-07 15:38 50.11081 8.88123 4382 ft 179 kts 251°
2026-05-07 15:38 50.10649 8.86334 4140 ft 174 kts 251°
2026-05-07 15:38 50.10227 8.84586 3912 ft 173 kts 251°
2026-05-07 15:39 50.09800 8.82813 3677 ft 176 kts 251°
2026-05-07 15:39 50.09369 8.81023 3454 ft 177 kts 251°
2026-05-07 15:39 50.08935 8.79223 3200 ft 177 kts 251°
2026-05-07 15:39 50.08505 8.77435 2958 ft 176 kts 251°
2026-05-07 15:40 50.08074 8.75641 2716 ft 177 kts 251°
2026-05-07 15:40 50.07643 8.73848 2472 ft 177 kts 251°
2026-05-07 15:40 50.07213 8.72056 2229 ft 176 kts 251°
2026-05-07 15:40 50.06784 8.70269 1982 ft 176 kts 251°
2026-05-07 15:41 50.06357 8.68488 1762 ft 176 kts 251°
2026-05-07 15:41 50.06075 8.67308 1590 ft 175 kts 251°
2026-05-07 15:41 50.05662 8.65589 1370 ft 163 kts 251°
2026-05-07 15:41 50.05292 8.64042 1159 ft 143 kts 251°
2026-05-07 15:42 50.04965 8.62660 948 ft 130 kts 251°
2026-05-07 15:42 50.04645 8.61358 784 ft 129 kts 250°
2026-05-07 15:42 50.04332 8.60042 612 ft 131 kts 250°
2026-05-07 15:42 50.04015 8.58728 418 ft 128 kts 250°
2026-05-07 15:43 50.03718 8.57469 352 ft 112 kts 250°
2026-05-07 15:43 50.03504 8.56556 354 ft 70 kts 249°
2026-05-07 15:43 50.03348 8.55898 346 ft 55 kts 250°
2026-05-07 15:43 50.03328 8.55362 345 ft 47 kts 279°
2026-05-07 15:44 50.03363 8.55130 345 ft 13 kts 314°
2026-05-07 15:44 50.03409 8.55128 352 ft 6 kts 52°
2026-05-07 15:44 50.03434 8.55227 351 ft 11 kts 66°
2026-05-07 15:44 50.03464 8.55334 351 ft 11 kts 68°
2026-05-07 15:45 50.03494 8.55472 354 ft 18 kts 72°
2026-05-07 15:45 50.03549 8.55709 351 ft 28 kts 70°
2026-05-07 15:45 50.03623 8.56020 350 ft 32 kts 69°
2026-05-07 15:45 50.03708 8.56373 355 ft 37 kts 69°
2026-05-07 15:46 50.03883 8.57111 353 ft 35 kts 69°
2026-05-07 15:46 50.03966 8.57452 347 ft 33 kts 70°
2026-05-07 15:46 50.04042 8.57774 349 ft 31 kts 69°
2026-05-07 15:47 50.04116 8.58077 352 ft 29 kts 69°
2026-05-07 15:47 50.04185 8.58364 354 ft 27 kts 71°
2026-05-07 15:47 50.04248 8.58632 351 ft 26 kts 69°
2026-05-07 15:47 50.04308 8.58883 347 ft 24 kts 70°
2026-05-07 15:48 50.04363 8.59117 349 ft 23 kts 70°
2026-05-07 15:48 50.04417 8.59344 349 ft 22 kts 70°
2026-05-07 15:48 50.04507 8.59470 348 ft 15 kts 356°
2026-05-07 15:48 50.04546 8.59466 352 ft 0 kts 356°
2026-05-07 15:49 50.04562 8.59465 349 ft 11 kts 358°
2026-05-07 15:49 50.04680 8.59449 350 ft 19 kts 347°
2026-05-07 15:49 50.04804 8.59381 346 ft 19 kts 336°
2026-05-07 15:49 50.04832 8.59206 352 ft 19 kts 251°
2026-05-07 15:50 50.04788 8.59021 347 ft 18 kts 249°
2026-05-07 15:50 50.04795 8.58930 355 ft 5 kts 340°
2026-05-07 15:50 50.04826 8.58915 352 ft 5 kts 342°
2026-05-07 15:50 50.04847 8.58904 349 ft 1 kts 340°
2026-05-07 15:51 50.04849 8.58902 349 ft 0 kts 340°